Regional Weather Roundup
Issued by NWS Binghamton, NY

Home | Current Version | Previous Version | Text Only | Print | Product List | Glossary On
Versions: 1 2 3 4 5 6 7 8 9 10 11 12 13 14 15 16 17 18 19 20 21 22 23 24 25 26 27 28 29 30 31 32 33 34 35 36 37 38 39 40 41 42 43 44 45 46 47 48 49 50
000
ASUS41 KBGM 302110
RWRBGM
RWRBGM
BINGHAMTON REGIONAL WEATHER ROUNDUP
NATIONAL WEATHER SERVICE BINGHAMTON NY
400 PM EST FRI JAN 30 2015

Note: "fair" indicates few or no clouds below 12,000 feet with no
significant weather and/or obstructions to visibility.

* = Station(s) that does not report precipitation, such as rain,
snow, etc, also no thunder or fog.

!NYZ009-015>018-022>025-036-037-044>046-055>057-062-302200
...CENTRAL NEW YORK...

CITY           SKY/WX    TMP DP  RH WIND       PRES   REMARKS
BINGHAMTON     LGT SNOW  14   8  77 NW15G31   29.97R VSB 1   WCI  -1
CORTLAND       LGT SNOW  18  12  79 NW12G24   30.06R VSB 1   WCI   5
DANSVILLE      CLOUDY    16   6  65 NW22G28   30.20R WCI  -2
ELMIRA         CLOUDY    17   7  64 NW17G26   30.10R HAZE    WCI   1
ITHACA         LGT SNOW  14   9  81 NW21G28   30.09R FOG     WCI  -4
HAMILTON       CLOUDY    18  10  73 NW12G18   30.01  VSB 1   WCI   5
MONTICELLO     CLOUDY    25  14  63 NW17G31   29.87R WCI  11
NORWICH        FLURRIES  18   9  68 N10G18    30.02R WCI   6
ONEONTA        LGT SNOW  16   7  67 NW12G24   29.89R WCI   3
PENN YAN       LGT SNOW  14   6  70 NW14G21   30.13R WCI  -1
ROME           CLOUDY    15   7  70 W17       30.08R WCI  -1
SIDNEY         PTSUNNY   19  10  68 NW15G30   29.99R WCI   5
SYRACUSE       LGT SNOW  14  11  87 NW16      30.12R VSB 1   WCI  -2
$$

!PAZ038>040-043-044-047-048-072-302200
...NORTHEAST PENNSYLVANIA...

CITY           SKY/WX    TMP DP  RH WIND       PRES   REMARKS
HAZLETON       PTSUNNY   27  14  59 NW17G29   29.93R WCI  14
SCRANTON       MIX PCPN  27  13  55 NW18G28   29.96R WCI  14
TOWANDA*       PTSUNNY   21   9  58 NW7G17    30.08R WCI  13
$$
&&
KEY
WCI = WIND CHILL INDEX
VSB = VISIBILITY
HX  = HEAT INDEX
$$



USA.gov is the U.S. government's official web portal to all federal, state and local government web resources and services.